Flag for Germany Weather past 2 weeks in Remscheid, North Rhine-Westphalia, Germany

52 °F


Feels Like: 49 °F
Forecast: 58 / 66 °F
Wind: 9 mph from Southeast

Location: Duesseldorf

Current Time: Oct 5, 2015 at 6:31:00 AM

Latest Report: Oct 5, 2015 at 5:20 AM

Visibility: 10 mi

Pressure: 29.95 "Hg

Humidity: 88%

Dew point: 48 °F

Location of RemscheidLocation

Historic Weather in Remscheid — Graph


Remscheid temperature yesterday

Maximum temperature yesterday: 66 °F (at 4:50 PM)
Minimum temperature yesterday: 48 °F (at 1:50 AM)
Average temperature yesterday: 57 °F

Past Weeks' High & Low Weather Summary

High68 °F (Oct 3, 3:20 PM)100% (Sep 23, 3:50 AM)30.63 "Hg (Sep 23, 3:50 AM)
Low37 °F (Oct 2, 5:20 AM)43% (Sep 30, 3:20 PM)29.50 "Hg (Sep 22, 3:50 PM)
Average55 °F79%30.19 "Hg
* Reported Sep 20 4:20 AM — Oct 5 4:50 AM, Remscheid, Weather by CustomWeather, © 2015

Note: Actual official high and low records may vary slightly from our data, if they occured in-between our weather recording intervals... More about our weather records


Remscheid weather history for previous 24 hours

Time TempWeatherWind HumidityBarometerVisibility
4:50 AM
Mon, Oct 5
52 °FClear.8 mph88%29.95 "Hg10 mi
4:20 AM52 °FClear.9 mph94%29.95 "Hg10 mi
3:50 AM52 °FClear.9 mph94%29.98 "Hg10 mi
3:20 AM54 °FClear.9 mph88%29.98 "Hg10 mi
2:50 AM54 °FClear.10 mph88%29.98 "Hg10 mi
2:20 AM54 °FClear.9 mph88%29.98 "Hg10 mi
1:50 AM54 °FClear.8 mph88%29.98 "Hg10 mi
1:20 AM54 °FClear.8 mph88%29.98 "Hg10 mi
12:50 AM54 °FClear.9 mph88%29.98 "Hg10 mi
12:20 AM54 °FClear.8 mph88%29.98 "Hg10 mi
11:50 PM
Sun, Oct 4
54 °FClear.6 mph88%29.98 "Hg10 mi
11:20 PM55 °FClear.8 mph88%29.98 "Hg10 mi
10:50 PM55 °FClear.7 mph82%29.98 "Hg10 mi
10:20 PM55 °FClear.8 mph82%29.98 "Hg10 mi
9:50 PM55 °FClear.8 mph82%30.01 "Hg10 mi
9:20 PM57 °FClear.8 mph77%29.98 "Hg10 mi
8:50 PM59 °FClear.10 mph72%29.98 "Hg10 mi
8:20 PM59 °FClear.9 mph77%29.98 "Hg10 mi
7:50 PM59 °FSunny.7 mph72%29.98 "Hg10 mi
7:20 PM61 °FSunny.6 mph68%29.98 "Hg10 mi
6:50 PM63 °FPassing clouds.7 mph64%29.98 "HgN/A
6:20 PM63 °FPassing clouds.10 mph64%29.98 "HgN/A
5:50 PM64 °FPassing clouds.12 mph64%29.98 "HgN/A
5:20 PM64 °FPassing clouds.10 mph64%29.98 "HgN/A
4:50 PM66 °FScattered clouds.9 mph64%29.98 "HgN/A
4:20 PM64 °FPartly sunny.8 mph73%29.98 "HgN/A
3:50 PM64 °FBroken clouds.8 mph73%30.01 "HgN/A
3:20 PM64 °FBroken clouds.7 mph73%30.01 "HgN/A
2:50 PM64 °FScattered clouds.8 mph73%30.01 "HgN/A
2:20 PM64 °FScattered clouds.6 mph73%30.01 "HgN/A
1:50 PM64 °FPartly sunny.6 mph68%30.01 "HgN/A
1:20 PM63 °FPartly sunny.6 mph73%30.01 "HgN/A
12:50 PM63 °FScattered clouds.7 mph73%30.01 "HgN/A
12:20 PM63 °FScattered clouds.8 mph73%30.04 "HgN/A
11:50 AM61 °FScattered clouds.6 mph77%30.04 "HgN/A
11:20 AM61 °FSunny.6 mph72%30.04 "Hg10 mi
10:50 AM59 °FSunny.6 mph77%30.04 "Hg10 mi
10:20 AM57 °FSunny.6 mph88%30.01 "Hg10 mi
9:50 AM55 °FSunny.7 mph88%30.01 "Hg10 mi
9:20 AM54 °FSunny.7 mph94%30.01 "Hg10 mi
8:50 AM52 °FSunny.6 mph94%30.01 "Hg10 mi
8:20 AM52 °FClear.3 mph94%30.01 "Hg10 mi
7:50 AM52 °FClear.5 mph94%30.01 "Hg10 mi
7:20 AM52 °FClear.3 mph88%30.01 "Hg10 mi
6:20 AM52 °FClear.6 mph94%29.98 "Hg10 mi
Weather by CustomWeather, © 2015

See weather overviewHow to use our weather pages